This is the latest recevied weather packets stored in our database for station/object IW3HBX-3. If no packets are shown the sender has not sent any weather packets the latest 10 day(s).
| Time | Temp. | Humidity | Pressure | Rain* | Wind** | Luminosity | Snow |
|---|---|---|---|---|---|---|---|
| 1777807461 | 24.44° C | 37% | 1018.6 hPa | 0 mm | - | 809 W/m² | - |
| 1777807161 | 25.56° C | 36% | 1018.7 hPa | 0 mm | - | 821 W/m² | - |
| 1777806862 | 25.56° C | 37% | 1018.6 hPa | 0 mm | - | 826 W/m² | - |
| 1777806562 | 25.56° C | 37% | 1018.7 hPa | 0 mm | - | 840 W/m² | - |
| 1777806262 | 25.56° C | 37% | 1018.8 hPa | 0 mm | - | 834 W/m² | - |
| 1777805962 | 25° C | 38% | 1018.8 hPa | 0 mm | - | 841 W/m² | - |
| 1777805663 | 24.44° C | 37% | 1018.8 hPa | 0 mm | - | 841 W/m² | - |
| 1777805363 | 25° C | 38% | 1018.8 hPa | 0 mm | - | 833 W/m² | - |
| 1777805063 | 25° C | 36% | 1018.9 hPa | 0 mm | - | 831 W/m² | - |
| 1777804764 | 25° C | 37% | 1018.9 hPa | 0 mm | - | 838 W/m² | - |
| 1777804464 | 24.44° C | 38% | 1019 hPa | 0 mm | - | 835 W/m² | - |
| 1777804164 | 25° C | 38% | 1019 hPa | 0 mm | - | 827 W/m² | - |
| 1777803864 | 24.44° C | 38% | 1019.2 hPa | 0 mm | - | 820 W/m² | - |
| 1777803564 | 23.89° C | 38% | 1019.2 hPa | 0 mm | - | 816 W/m² | - |
| 1777803265 | 25° C | 38% | 1019.1 hPa | 0 mm | - | 805 W/m² | - |
| 1777802965 | 25° C | 37% | 1019.2 hPa | 0 mm | - | 801 W/m² | - |
| 1777802665 | 24.44° C | 39% | 1019.3 hPa | 0 mm | - | 790 W/m² | - |
| 1777802365 | 23.89° C | 40% | 1019.2 hPa | 0 mm | - | 797 W/m² | - |
| 1777802066 | 23.33° C | 40% | 1019.3 hPa | 0 mm | - | 782 W/m² | - |
| 1777801766 | 25° C | 40% | 1019.3 hPa | 0 mm | - | 776 W/m² | - |
| 1777801466 | 25° C | 40% | 1019.4 hPa | 0 mm | - | 765 W/m² | - |
| 1777801166 | 24.44° C | 39% | 1019.4 hPa | 0 mm | - | 752 W/m² | - |
| 1777800867 | 24.44° C | 39% | 1019.4 hPa | 0 mm | - | 758 W/m² | - |
| 1777800567 | 23.89° C | 41% | 1019.5 hPa | 0 mm | - | 750 W/m² | - |
| 1777800267 | 23.89° C | 42% | 1019.5 hPa | 0 mm | - | 726 W/m² | - |
* Rain latest hour (hover to see other rain measurements)
** Current wind speed in m/s (hover to see current wind gust speed)